SZ-17 MODULE

Last updated on Thu Sep 12 2024 00:02:08 GMT+0000 (Coordinated Universal Time)

1 59624U 23164C 24255.49918151 .00091376 00000+0 57565-3 0 9994 2 59624 41.4740 270.8826 0009221 146.5266 213.6163 15.75558051 21103
UTC large
Height (km)
Speed (km/s)
/
Latitude / Longitude
Inclination (degrees)
Orbital Period (minutes)
Azimuth
Elevation
Range (km)
Doppler Factor

Next 0 passes for location: London (51.5072 / 0.1276)

Sorry there are no passes over London.